"startDT [UTC]","vpos","CH4 [ppm]","stdev(CH4) [ppm]","CO2 [ppm]","stdev(CO2) [ppm]","H2O [ppm]","stdev(H2O)","p_LGR [torr]","T_LGR [C]","mt1_LGR [us]","mt2_LGR [us]","T_ECpre [C]","T_EC1 [C]","T_EC2 [C]","p_inlet [hPa]","p_in [hPa]","p_out [hPa]","T_inlet [C]","RH_inlet [%]","dwpt_inlet [C]","T_vent [C]","RH_vent [%]","dwpt_vent [C]","flow_vent [l min-1]","flow_inlet [l min-1]","dwpt_sample [C]","T_room [C]"
2013-05-06 00:00:00,0.0,1.9116,0.0009,406.65,0.41,399.0,26.7,138.06,31.37,24.67,36.43,0.04,-272.76,-272.76,-44,567,-931,25.4,10.2,-8.2,25.3,10.6,-7.8,5.73,2.33,-20.8,30.0
2013-05-06 00:01:00,0.0,1.9124,0.0011,406.56,0.40,398.6,33.7,138.06,31.36,24.67,36.43,0.04,-272.76,-272.76,-45,567,-931,25.4,10.2,-8.1,25.3,10.6,-7.7,5.73,2.30,-20.8,30.1
2013-05-06 00:02:00,0.0,1.9120,0.0009,406.58,0.39,401.8,32.3,138.06,31.36,24.66,36.43,0.04,-272.76,-272.76,-45,567,-930,25.4,10.2,-8.2,25.3,10.6,-7.8,5.73,2.40,-20.9,30.1
2013-05-06 00:03:00,0.0,1.9120,0.0009,406.52,0.43,395.9,28.0,138.06,31.36,24.67,36.43,0.04,-272.76,-272.76,-44,567,-930,25.4,10.1,-8.2,25.4,10.5,-7.8,5.73,2.39,-20.8,30.1
2013-05-06 00:04:00,0.0,1.9121,0.0011,406.54,0.41,400.5,27.7,138.06,31.36,24.67,36.43,0.04,-272.76,-272.76,-44,567,-931,25.4,10.2,-8.2,25.4,10.6,-7.7,5.73,2.30,-20.8,30.1
2013-05-06 00:05:00,0.0,1.9123,0.0010,406.54,0.37,397.5,27.3,138.06,31.36,24.66,36.43,0.04,-272.76,-272.76,-45,567,-931,25.5,10.1,-8.2,25.4,10.6,-7.7,5.73,2.34,-20.8,30.1
2013-05-06 00:06:00,0.0,1.9125,0.0008,406.61,0.41,396.3,28.0,138.06,31.35,24.66,36.42,0.04,-272.76,-272.76,-45,567,-931,25.4,10.1,-8.3,25.4,10.4,-7.9,5.73,2.41,-20.8,30.1
2013-05-06 00:07:00,0.0,1.9128,0.0009,406.61,0.40,401.2,34.4,138.06,31.35,24.67,36.43,0.04,-272.76,-272.76,-45,567,-930,25.5,10.1,-8.2,25.4,10.5,-7.9,5.73,2.34,-20.8,30.1
2013-05-06 00:08:00,0.0,1.9122,0.0008,406.53,0.41,402.8,25.7,138.06,31.35,24.66,36.43,0.04,-272.76,-272.76,-44,567,-931,25.5,10.1,-8.2,25.4,10.5,-7.8,5.73,2.30,-20.8,30.1
2013-05-06 00:09:00,0.0,1.9123,0.0008,406.59,0.38,404.8,26.2,138.06,31.35,24.66,36.43,0.04,-272.76,-272.76,-44,567,-931,25.5,10.1,-8.2,25.4,10.5,-7.8,5.73,2.39,-20.8,30.1
2013-05-06 00:10:00,0.0,1.9121,0.0008,406.48,0.37,401.4,32.0,138.06,31.35,24.66,36.43,0.04,-272.76,-272.76,-45,567,-931,25.5,10.1,-8.2,25.4,10.5,-7.8,5.73,2.39,-20.8,30.1
2013-05-06 00:11:00,0.0,1.9119,0.0008,406.43,0.44,394.2,31.0,138.06,31.35,24.66,36.43,0.04,-272.76,-272.76,-45,567,-931,25.5,10.1,-8.2,25.4,10.5,-7.8,5.73,2.32,-20.8,30.1
2013-05-06 00:12:00,0.0,1.9116,0.0009,406.43,0.53,408.0,31.4,138.06,31.35,24.66,36.44,0.04,-272.76,-272.76,-45,567,-930,25.5,10.1,-8.2,25.4,10.4,-7.9,5.73,2.32,-20.8,30.1
2013-05-06 00:13:00,0.0,1.9119,0.0009,406.45,0.37,397.1,27.9,138.06,31.35,24.66,36.43,0.04,-272.76,-272.76,-44,567,-931,25.5,10.2,-8.2,25.4,10.5,-7.7,5.73,2.39,-20.8,30.1
2013-05-06 00:14:00,0.0,1.9114,0.0011,406.53,0.36,402.6,34.0,138.06,31.35,24.67,36.43,0.04,-272.76,-272.76,-45,567,-931,25.5,10.1,-8.2,25.4,10.5,-7.8,5.73,2.40,-20.8,30.1
2013-05-06 00:15:00,0.0,1.9101,0.0009,406.36,0.37,401.5,32.4,138.06,31.35,24.67,36.43,0.04,-272.76,-272.76,-45,567,-931,25.5,10.0,-8.3,25.4,10.4,-7.9,5.73,2.32,-20.8,30.1
2013-05-06 00:16:00,0.0,1.9111,0.0010,406.48,0.43,399.5,32.1,138.06,31.34,24.66,36.43,0.04,-272.76,-272.75,-45,568,-931,25.5,10.1,-8.2,25.4,10.5,-7.8,5.73,2.31,-20.8,30.1
2013-05-06 00:17:00,0.0,1.9107,0.0011,406.52,0.46,396.3,28.0,138.06,31.34,24.66,36.43,0.04,-272.76,-272.77,-45,567,-930,25.5,10.0,-8.3,25.4,10.4,-7.9,5.73,2.39,-20.8,30.1
2013-05-06 00:18:00,0.0,1.9106,0.0009,406.50,0.48,405.3,33.9,138.06,31.34,24.66,36.43,0.04,-272.76,-272.76,-45,568,-931,25.5,10.0,-8.3,25.4,10.4,-7.9,5.73,2.40,-20.8,30.1
2013-05-06 00:19:00,0.0,1.9102,0.0009,406.54,0.44,407.5,29.8,138.06,31.34,24.66,36.43,0.04,-272.76,-272.76,-45,568,-931,25.5,10.1,-8.2,25.5,10.5,-7.8,5.73,2.32,-20.8,30.1
2013-05-06 00:20:00,0.0,1.9093,0.0010,406.59,0.40,399.4,28.2,138.06,31.33,24.66,36.42,0.04,-272.76,-272.76,-45,568,-931,25.5,10.0,-8.3,25.5,10.4,-7.9,5.73,2.31,-20.8,30.1
2013-05-06 00:21:00,0.0,1.9096,0.0009,406.57,0.51,407.4,29.2,138.06,31.33,24.66,36.42,0.04,-272.76,-272.76,-45,568,-931,25.5,10.0,-8.4,25.5,10.3,-8.0,5.73,2.38,-20.8,30.1
2013-05-06 00:22:00,0.0,1.9097,0.0008,406.49,0.42,398.6,29.2,138.06,31.33,24.66,36.43,0.04,-272.76,-272.76,-45,568,-931,25.6,10.0,-8.3,25.5,10.4,-7.9,5.73,2.40,-20.7,30.2
2013-05-06 00:23:00,0.0,1.9094,0.0009,406.44,0.41,401.7,29.8,138.06,31.33,24.66,36.43,0.04,-272.76,-272.76,-45,568,-931,25.6,10.0,-8.3,25.5,10.4,-7.9,5.73,2.33,-20.7,30.1
2013-05-06 00:24:00,0.0,1.9098,0.0009,406.50,0.44,407.6,28.0,138.06,31.33,24.66,36.43,0.04,-272.77,-272.76,-45,568,-931,25.6,10.0,-8.3,25.5,10.4,-7.9,5.73,2.31,-20.7,30.2
2013-05-06 00:25:00,0.0,1.9085,0.0011,406.38,0.47,408.6,31.2,138.06,31.33,24.66,36.43,0.04,-272.76,-272.76,-45,568,-931,25.6,9.9,-8.4,25.5,10.2,-8.1,5.73,2.38,-20.7,30.2
2013-05-06 00:26:00,0.0,1.9104,0.0009,406.51,0.35,405.2,26.2,138.06,31.33,24.66,36.43,0.04,-272.76,-272.76,-45,568,-931,25.6,10.0,-8.2,25.5,10.4,-7.8,5.73,2.40,-20.7,30.2
2013-05-06 00:27:00,0.0,1.9099,0.0007,406.52,0.44,409.9,33.5,138.06,31.33,24.66,36.43,0.04,-272.76,-272.76,-45,568,-931,25.6,10.1,-8.1,25.5,10.5,-7.7,5.73,2.32,-20.7,30.2
2013-05-06 00:28:00,0.0,1.9099,0.0009,406.63,0.45,414.6,27.4,138.06,31.33,24.66,36.43,0.04,-272.76,-272.76,-45,568,-931,25.6,10.3,-8.0,25.5,10.6,-7.6,5.73,2.31,-20.7,30.2
2013-05-06 00:29:00,0.0,1.9099,0.0009,406.40,0.40,408.3,32.1,138.06,31.33,24.66,36.44,0.04,-272.76,-272.76,-45,568,-931,25.6,10.2,-8.0,25.5,10.6,-7.6,5.73,2.39,-20.7,30.2
2013-05-06 00:30:00,0.0,1.9096,0.0007,406.45,0.50,406.4,28.6,138.06,31.32,24.66,36.43,0.04,-272.76,-272.76,-45,568,-931,25.6,10.1,-8.2,25.5,10.5,-7.8,5.73,2.39,-20.7,30.2
2013-05-06 00:31:00,0.0,1.9109,0.0009,406.63,0.38,400.5,26.2,138.06,31.32,24.66,36.43,0.04,-272.76,-272.77,-45,568,-931,25.6,10.2,-8.0,25.5,10.6,-7.6,5.73,2.32,-20.7,30.2
2013-05-06 00:32:00,0.0,1.9110,0.0010,406.63,0.40,408.2,33.4,138.06,31.32,24.66,36.43,0.04,-272.75,-272.76,-45,568,-931,25.6,10.3,-8.0,25.5,10.6,-7.5,5.73,2.31,-20.7,30.2
2013-05-06 00:33:00,0.0,1.9104,0.0009,406.51,0.43,402.1,29.4,138.06,31.32,24.66,36.43,0.04,-272.76,-272.76,-45,568,-932,25.6,10.3,-7.9,25.5,10.7,-7.5,5.73,2.38,-20.7,30.2
2013-05-06 00:34:00,0.0,1.9112,0.0009,406.48,0.37,408.5,30.8,138.06,31.32,24.66,36.43,0.04,-272.76,-272.76,-45,568,-931,25.6,10.1,-8.1,25.5,10.5,-7.7,5.73,2.40,-20.7,30.2
2013-05-06 00:35:00,0.0,1.9111,0.0010,406.62,0.44,405.3,34.3,138.06,31.32,24.66,36.43,0.04,-272.76,-272.76,-45,568,-931,25.6,10.3,-7.9,25.5,10.7,-7.5,5.73,2.33,-20.7,30.2
2013-05-06 00:36:00,0.0,1.9109,0.0009,406.68,0.39,400.1,34.2,138.06,31.32,24.66,36.43,0.04,-272.76,-272.76,-45,568,-931,25.6,10.2,-8.1,25.5,10.6,-7.6,5.73,2.31,-20.7,30.2
2013-05-06 00:37:00,0.0,1.9108,0.0011,406.49,0.37,403.4,27.7,138.06,31.32,24.66,36.43,0.04,-272.76,-272.76,-45,568,-931,25.6,10.1,-8.2,25.5,10.4,-7.8,5.73,2.37,-20.7,30.2
2013-05-06 00:38:00,0.0,1.9103,0.0009,406.51,0.34,405.7,28.1,138.06,31.32,24.66,36.43,0.04,-272.76,-272.76,-45,568,-932,25.6,10.2,-8.1,25.5,10.5,-7.7,5.73,2.40,-20.7,30.2
2013-05-06 00:39:00,0.0,1.9100,0.0010,406.47,0.44,401.6,34.5,138.06,31.31,24.66,36.43,0.04,-272.76,-272.76,-45,568,-931,25.6,10.1,-8.2,25.5,10.4,-7.8,5.73,2.36,-20.7,30.1
2013-05-06 00:40:00,0.0,1.9104,0.0008,406.68,0.49,415.8,29.8,138.06,31.31,24.66,36.43,0.04,-272.76,-272.76,-45,569,-931,25.6,10.1,-8.2,25.5,10.4,-7.8,5.73,2.31,-20.7,30.2
2013-05-06 00:41:00,0.0,1.9103,0.0009,406.51,0.46,404.0,30.1,138.06,31.31,24.66,36.43,0.04,-272.76,-272.76,-45,569,-931,25.6,10.1,-8.1,25.5,10.5,-7.7,5.73,2.31,-20.7,30.2
2013-05-06 00:42:00,0.0,1.9097,0.0011,406.61,0.46,403.7,30.5,138.06,31.31,24.66,36.43,0.04,-272.76,-272.76,-45,568,-931,25.6,10.1,-8.1,25.5,10.5,-7.7,5.73,2.37,-20.7,30.2
2013-05-06 00:43:00,0.0,1.9101,0.0012,406.55,0.40,401.3,31.9,138.06,31.31,24.66,36.43,0.04,-272.76,-272.76,-45,569,-932,25.6,10.2,-8.0,25.5,10.6,-7.6,5.73,2.41,-20.7,30.2
2013-05-06 00:44:00,0.0,1.9109,0.0009,406.59,0.41,398.6,28.3,138.06,31.31,24.66,36.43,0.04,-272.76,-272.76,-45,569,-931,25.6,10.3,-7.9,25.5,10.7,-7.5,5.73,2.36,-20.7,30.2
2013-05-06 00:45:00,0.0,1.9105,0.0009,406.62,0.33,405.3,27.5,138.06,31.31,24.66,36.43,0.04,-272.76,-272.76,-45,569,-931,25.6,10.2,-8.0,25.5,10.6,-7.6,5.73,2.31,-20.7,30.2
2013-05-06 00:46:00,0.0,1.9103,0.0009,406.51,0.46,410.4,29.7,138.06,31.31,24.66,36.43,0.04,-272.76,-272.76,-45,569,-931,25.6,10.1,-8.2,25.5,10.5,-7.7,5.73,2.33,-20.7,30.2
2013-05-06 00:47:00,0.0,1.9104,0.0008,406.62,0.36,409.4,30.5,138.06,31.31,24.66,36.43,0.04,-272.76,-272.76,-45,569,-931,25.6,10.3,-8.0,25.5,10.6,-7.6,5.73,2.39,-20.7,30.2
2013-05-06 00:48:00,0.0,1.9098,0.0016,406.45,0.39,400.9,31.0,138.06,31.30,24.66,36.43,0.04,-272.76,-272.76,-45,569,-932,25.6,10.2,-8.1,25.5,10.6,-7.6,5.73,2.40,-20.7,30.2
2013-05-06 00:49:00,0.0,1.9082,0.0011,406.52,0.43,415.6,30.6,138.06,31.30,24.66,36.43,0.04,-272.76,-272.76,-45,569,-931,25.6,10.0,-8.3,25.5,10.4,-7.9,5.73,2.35,-20.7,30.2
2013-05-06 00:50:00,0.0,1.9103,0.0010,406.65,0.39,410.1,28.3,138.06,31.30,24.66,36.43,0.04,-272.76,-272.76,-45,568,-931,25.6,10.3,-8.0,25.5,10.6,-7.6,5.73,2.30,-20.7,30.2
2013-05-06 00:51:00,0.0,1.9101,0.0008,406.53,0.45,399.8,33.2,138.06,31.30,24.66,36.43,0.04,-272.76,-272.76,-45,569,-931,25.6,10.3,-8.0,25.5,10.7,-7.5,5.73,2.33,-20.7,30.2
2013-05-06 00:52:00,0.0,1.9098,0.0009,406.58,0.39,398.6,29.7,138.06,31.30,24.66,36.43,0.04,-272.76,-272.76,-45,569,-932,25.6,10.3,-8.0,25.5,10.7,-7.5,5.73,2.37,-20.7,30.2
2013-05-06 00:53:00,0.0,1.9100,0.0011,406.59,0.47,397.2,30.8,138.06,31.30,24.66,36.43,0.04,-272.75,-272.76,-45,569,-931,25.6,10.1,-8.1,25.5,10.5,-7.7,5.73,2.40,-20.7,30.2
2013-05-06 00:54:00,0.0,1.9099,0.0013,406.43,0.40,406.3,32.6,138.06,31.29,24.66,36.43,0.04,-272.76,-272.76,-45,569,-931,25.6,10.2,-8.1,25.5,10.5,-7.7,5.73,2.38,-20.7,30.2
2013-05-06 00:55:00,0.0,1.9097,0.0010,406.51,0.42,399.7,25.4,138.06,31.29,24.66,36.43,0.04,-272.76,-272.76,-45,569,-931,25.6,10.2,-8.0,25.5,10.6,-7.6,5.73,2.34,-20.7,30.1
2013-05-06 00:56:00,0.0,1.9089,0.0012,406.44,0.39,399.0,31.5,138.06,31.29,24.66,36.43,0.04,-272.76,-272.76,-45,569,-931,25.6,10.2,-8.1,25.5,10.5,-7.7,5.73,2.33,-20.8,30.2
2013-05-06 00:57:00,0.0,1.9102,0.0008,406.44,0.47,407.6,34.1,138.06,31.29,24.66,36.43,0.04,-272.76,-272.76,-45,569,-932,25.6,10.4,-7.9,25.5,10.7,-7.5,5.73,2.33,-20.8,30.2
2013-05-06 00:58:00,0.0,1.9101,0.0012,406.50,0.46,404.8,31.0,138.06,31.28,24.66,36.43,0.04,-272.76,-272.76,-45,569,-931,25.6,10.3,-7.9,25.5,10.7,-7.5,5.73,2.34,-20.8,30.1
2013-05-06 00:59:00,0.0,1.9098,0.0009,406.52,0.45,397.9,35.5,138.06,31.28,24.66,36.43,0.04,-272.76,-272.76,-45,569,-931,25.6,10.2,-8.0,25.5,10.6,-7.6,5.73,2.38,-20.7,30.2
2013-05-06 01:00:00,0.0,1.9106,0.0012,406.56,0.40,391.9,26.6,138.06,31.28,24.66,36.43,0.04,-272.76,-272.76,-45,569,-931,25.6,10.2,-8.0,25.5,10.6,-7.6,5.73,2.39,-20.8,30.2
2013-05-06 01:01:00,0.0,1.9098,0.0008,406.53,0.47,395.1,28.3,138.06,31.28,24.66,36.43,0.04,-272.76,-272.76,-45,569,-932,25.6,10.2,-8.0,25.5,10.6,-7.6,5.73,2.37,-20.8,30.2
2013-05-06 01:02:00,0.0,1.9102,0.0008,406.50,0.38,393.1,29.4,138.06,31.28,24.66,36.43,0.04,-272.76,-272.76,-45,569,-931,25.6,10.2,-8.0,25.5,10.6,-7.6,5.73,2.32,-20.7,30.2
2013-05-06 01:03:00,0.0,1.9096,0.0008,406.50,0.47,401.9,28.9,138.06,31.27,24.66,36.43,0.04,-272.76,-272.76,-45,569,-931,25.6,10.3,-7.9,25.5,10.6,-7.5,5.73,2.32,-20.7,30.1
2013-05-06 01:04:00,0.0,1.9093,0.0009,406.49,0.43,400.4,29.7,138.06,31.27,24.66,36.43,0.04,-272.76,-272.76,-45,569,-931,25.6,10.3,-7.9,25.5,10.7,-7.5,5.73,2.35,-20.8,30.1
2013-05-06 01:05:00,0.0,1.9109,0.0011,406.51,0.48,396.4,33.4,138.06,31.27,24.66,36.43,0.04,-272.76,-272.76,-45,569,-931,25.6,10.3,-7.9,25.5,10.6,-7.5,5.73,2.38,-20.8,30.2
2013-05-06 01:06:00,0.0,1.9106,0.0012,406.55,0.39,400.0,31.0,138.06,31.27,24.66,36.43,0.04,-272.76,-272.76,-45,569,-931,25.6,10.4,-7.7,25.5,10.8,-7.3,5.73,2.39,-20.7,30.1
2013-05-06 01:07:00,0.0,1.9094,0.0009,406.49,0.43,395.5,27.6,138.06,31.27,24.67,36.43,0.04,-272.76,-272.76,-45,569,-931,25.6,10.3,-7.9,25.5,10.7,-7.5,5.73,2.37,-20.8,30.2
2013-05-06 01:08:00,0.0,1.9102,0.0010,406.52,0.44,403.4,28.5,138.06,31.27,24.66,36.44,0.04,-272.76,-272.76,-45,569,-932,25.6,10.3,-7.9,25.5,10.7,-7.5,5.73,2.33,-20.7,30.2
2013-05-06 01:09:00,0.0,1.9112,0.0008,406.65,0.42,400.3,30.6,138.06,31.27,24.66,36.43,0.04,-272.76,-272.76,-45,569,-931,25.6,10.5,-7.7,25.5,10.8,-7.3,5.73,2.31,-20.8,30.2
2013-05-06 01:10:00,0.0,1.9109,0.0010,406.46,0.49,397.6,29.6,138.06,31.26,24.67,36.44,0.04,-272.76,-272.76,-45,569,-931,25.6,10.5,-7.7,25.5,10.9,-7.2,5.73,2.33,-20.8,30.2
2013-05-06 01:11:00,0.0,1.9113,0.0008,406.57,0.41,402.6,34.8,138.06,31.26,24.67,36.44,0.04,-272.76,-272.76,-45,569,-931,25.6,10.6,-7.6,25.5,10.9,-7.2,5.73,2.37,-20.7,30.1
2013-05-06 01:12:00,0.0,1.9107,0.0009,406.58,0.38,398.8,27.2,138.06,31.26,24.67,36.44,0.04,-272.76,-272.76,-45,569,-931,25.6,10.4,-7.8,25.5,10.7,-7.4,5.73,2.39,-20.7,30.2
2013-05-06 01:13:00,0.0,1.9105,0.0012,406.54,0.40,396.6,32.6,138.06,31.26,24.66,36.44,0.04,-272.76,-272.76,-45,569,-931,25.6,10.3,-7.9,25.5,10.7,-7.5,5.73,2.38,-20.7,30.2
2013-05-06 01:14:00,0.0,1.9121,0.0011,406.62,0.43,400.1,30.4,138.06,31.26,24.66,36.43,0.04,-272.76,-272.76,-45,569,-931,25.6,10.5,-7.6,25.5,10.9,-7.2,5.73,2.34,-20.7,30.1
2013-05-06 01:15:00,0.0,1.9107,0.0008,406.63,0.44,397.7,30.2,138.06,31.25,24.66,36.43,0.04,-272.76,-272.76,-45,569,-932,25.6,10.6,-7.6,25.5,11.0,-7.1,5.73,2.32,-20.8,30.1
2013-05-06 01:16:00,0.0,1.9115,0.0011,406.53,0.39,397.6,31.5,138.06,31.25,24.66,36.43,0.04,-272.76,-272.76,-45,569,-931,25.6,10.5,-7.7,25.5,10.9,-7.2,5.73,2.32,-20.8,30.1
2013-05-06 01:17:00,0.0,1.9120,0.0011,406.74,0.43,401.1,31.3,138.06,31.25,24.66,36.43,0.04,-272.76,-272.76,-45,569,-931,25.6,10.5,-7.7,25.5,10.9,-7.2,5.73,2.34,-20.8,30.2
2013-05-06 01:18:00,0.0,1.9113,0.0010,406.70,0.35,398.3,27.8,138.06,31.25,24.66,36.43,0.04,-272.76,-272.76,-45,569,-931,25.6,10.5,-7.7,25.5,10.8,-7.3,5.73,2.36,-20.8,30.1
2013-05-06 01:19:00,0.0,1.9116,0.0012,406.63,0.35,397.3,32.8,138.06,31.25,24.66,36.43,0.04,-272.76,-272.76,-45,569,-931,25.6,10.5,-7.7,25.5,10.9,-7.3,5.73,2.39,-20.8,30.2
2013-05-06 01:20:00,0.0,1.9116,0.0010,406.62,0.42,390.8,34.7,138.06,31.25,24.66,36.43,0.04,-272.76,-272.76,-45,569,-931,25.6,10.6,-7.5,25.5,11.0,-7.1,5.73,2.38,-20.7,30.2
2013-05-06 01:21:00,0.0,1.9107,0.0013,406.51,0.43,401.4,23.4,138.06,31.25,24.66,36.44,0.04,-272.76,-272.76,-45,569,-931,25.6,10.3,-7.9,25.5,10.7,-7.4,5.73,2.35,-20.7,30.2
2013-05-06 01:22:00,0.0,1.9106,0.0009,406.35,0.36,400.4,29.7,138.06,31.24,24.66,36.44,0.04,-272.76,-272.76,-45,569,-932,25.6,10.3,-8.0,25.5,10.6,-7.5,5.73,2.32,-20.8,30.2
2013-05-06 01:23:00,0.0,1.9114,0.0010,406.54,0.38,396.1,29.3,138.06,31.24,24.66,36.43,0.04,-272.76,-272.76,-45,569,-931,25.6,10.3,-7.9,25.5,10.7,-7.4,5.73,2.32,-20.7,30.1
2013-05-06 01:24:00,0.0,1.9111,0.0010,406.56,0.40,399.6,30.8,138.06,31.24,24.66,36.43,0.04,-272.76,-272.76,-45,569,-931,25.6,10.3,-7.9,25.5,10.7,-7.5,5.73,2.34,-20.7,30.1
2013-05-06 01:25:00,0.0,1.9116,0.0008,406.51,0.44,406.8,28.4,138.06,31.24,24.66,36.44,0.04,-272.76,-272.76,-45,569,-931,25.6,10.6,-7.6,25.5,10.9,-7.2,5.73,2.37,-20.7,30.1
2013-05-06 01:26:00,0.0,1.9104,0.0010,406.55,0.41,398.5,32.8,138.06,31.24,24.66,36.43,0.04,-272.76,-272.76,-45,569,-931,25.6,10.3,-7.9,25.5,10.7,-7.5,5.73,2.39,-20.7,30.1
2013-05-06 01:27:00,0.0,1.9094,0.0010,406.54,0.44,398.2,27.6,138.06,31.24,24.66,36.44,0.04,-272.76,-272.76,-45,569,-931,25.6,10.2,-8.0,25.5,10.6,-7.6,5.73,2.38,-20.7,30.1
2013-05-06 01:28:00,0.0,1.9113,0.0010,406.59,0.40,405.0,31.1,138.06,31.24,24.66,36.43,0.04,-272.76,-272.76,-45,569,-931,25.6,10.4,-7.8,25.5,10.8,-7.4,5.73,2.36,-20.7,30.1
2013-05-06 01:29:00,0.0,1.9112,0.0009,406.58,0.40,407.8,31.5,138.06,31.24,24.66,36.43,0.04,-272.76,-272.76,-45,569,-931,25.6,10.5,-7.7,25.5,10.8,-7.3,5.73,2.33,-20.7,30.1
2013-05-06 01:30:00,0.0,1.9124,0.0010,406.54,0.37,394.9,28.0,138.06,31.23,24.66,36.44,0.04,-272.76,-272.76,-45,569,-931,25.6,10.7,-7.4,25.5,11.1,-7.0,5.73,2.32,-20.7,30.1
2013-05-06 01:31:00,0.0,1.9110,0.0009,406.51,0.39,401.7,30.7,138.06,31.23,24.66,36.43,0.04,-272.76,-272.76,-45,569,-931,25.6,10.4,-7.8,25.5,10.8,-7.4,5.73,2.33,-20.7,30.2
2013-05-06 01:32:00,0.0,1.9106,0.0010,406.53,0.45,404.6,29.0,138.06,31.23,24.66,36.44,0.04,-272.76,-272.76,-45,569,-931,25.6,10.4,-7.8,25.5,10.7,-7.4,5.73,2.37,-20.7,30.2
2013-05-06 01:33:00,0.0,1.9104,0.0012,406.48,0.46,402.8,32.7,138.06,31.23,24.66,36.44,0.04,-272.76,-272.76,-45,569,-931,25.6,10.3,-7.9,25.5,10.7,-7.5,5.73,2.39,-20.7,30.2
2013-05-06 01:34:00,0.0,1.9115,0.0011,406.63,0.38,409.5,30.3,138.06,31.23,24.66,36.43,0.04,-272.76,-272.76,-45,569,-931,25.6,10.5,-7.6,25.5,10.9,-7.3,5.73,2.38,-20.7,30.2
2013-05-06 01:35:00,0.0,1.9110,0.0009,406.56,0.47,408.3,33.6,138.06,31.22,24.66,36.44,0.04,-272.76,-272.76,-45,569,-931,25.6,10.5,-7.7,25.5,10.9,-7.3,5.73,2.35,-20.7,30.2
2013-05-06 01:36:00,0.0,1.9115,0.0010,406.67,0.39,410.7,28.6,138.06,31.22,24.66,36.43,0.04,-272.76,-272.76,-45,569,-931,25.6,10.4,-7.7,25.5,10.8,-7.3,5.73,2.32,-20.7,30.2
2013-05-06 01:37:00,0.0,1.9103,0.0011,406.64,0.44,405.6,26.9,138.06,31.22,24.66,36.44,0.04,-272.76,-272.76,-45,569,-931,25.6,10.4,-7.8,25.5,10.8,-7.4,5.73,2.31,-20.7,30.2
2013-05-06 01:38:00,0.0,1.9107,0.0010,406.52,0.44,406.9,29.1,138.06,31.22,24.66,36.44,0.04,-272.76,-272.76,-45,569,-931,25.6,10.5,-7.6,25.5,10.9,-7.2,5.73,2.35,-20.7,30.2
2013-05-06 01:39:00,0.0,1.9103,0.0010,406.45,0.43,404.0,28.7,138.06,31.22,24.66,36.44,0.04,-272.76,-272.76,-45,569,-931,25.6,10.4,-7.7,25.5,10.8,-7.4,5.73,2.38,-20.7,30.2
2013-05-06 01:40:00,0.0,1.9115,0.0013,406.68,0.41,409.0,29.1,138.06,31.22,24.66,36.43,0.04,-272.76,-272.76,-45,569,-931,25.6,10.7,-7.4,25.5,11.1,-7.0,5.73,2.39,-20.7,30.2
2013-05-06 01:41:00,0.0,1.9125,0.0009,406.72,0.46,407.7,32.1,138.06,31.22,24.66,36.43,0.04,-272.76,-272.76,-45,569,-932,25.6,10.8,-7.3,25.5,11.2,-6.9,5.73,2.38,-20.7,30.2
2013-05-06 01:42:00,0.0,1.9127,0.0010,406.58,0.42,400.4,29.8,138.06,31.22,24.66,36.44,0.04,-272.76,-272.76,-45,569,-931,25.6,10.6,-7.5,25.5,11.0,-7.1,5.73,2.34,-20.7,30.1
2013-05-06 01:43:00,0.0,1.9114,0.0009,406.61,0.39,395.7,31.8,138.06,31.22,24.66,36.43,0.04,-272.76,-272.76,-45,569,-931,25.6,10.6,-7.6,25.5,10.9,-7.2,5.73,2.32,-20.7,30.2
2013-05-06 01:44:00,0.0,1.9115,0.0008,406.64,0.40,401.4,29.0,138.06,31.22,24.66,36.43,0.04,-272.76,-272.76,-45,569,-932,25.6,10.5,-7.6,25.5,10.8,-7.3,5.73,2.32,-20.7,30.2
2013-05-06 01:45:00,0.0,1.9121,0.0009,406.68,0.40,403.0,29.5,138.06,31.22,24.66,36.43,0.04,-272.76,-272.76,-45,569,-931,25.6,10.7,-7.4,25.5,11.1,-7.0,5.73,2.35,-20.7,30.2
2013-05-06 01:46:00,0.0,1.9119,0.0012,406.55,0.40,407.7,24.8,138.06,31.22,24.66,36.44,0.04,-272.76,-272.76,-45,569,-931,25.6,10.7,-7.5,25.6,11.0,-7.1,5.73,2.37,-20.7,30.2
2013-05-06 01:47:00,0.0,1.9122,0.0009,406.69,0.48,405.9,30.0,138.06,31.22,24.66,36.43,0.04,-272.76,-272.76,-45,569,-931,25.6,10.7,-7.4,25.5,11.1,-7.0,5.73,2.38,-20.7,30.2
2013-05-06 01:48:00,0.0,1.9112,0.0011,406.60,0.44,405.0,33.5,138.06,31.22,24.66,36.43,0.04,-272.76,-272.76,-45,569,-931,25.6,10.7,-7.4,25.6,11.1,-7.0,5.73,2.38,-20.7,30.2
2013-05-06 01:49:00,0.0,1.9118,0.0011,406.67,0.41,404.3,25.4,138.06,31.21,24.66,36.43,0.04,-272.76,-272.76,-45,569,-931,25.6,10.6,-7.5,25.6,11.0,-7.1,5.73,2.36,-20.7,30.2
2013-05-06 01:50:00,0.0,1.9122,0.0008,406.60,0.48,399.5,29.7,138.06,31.21,24.66,36.44,0.04,-272.75,-272.76,-45,569,-931,25.6,10.8,-7.3,25.6,11.2,-6.9,5.73,2.34,-20.7,30.2
2013-05-06 01:51:00,0.0,1.9115,0.0012,406.57,0.42,401.6,27.9,138.06,31.21,24.66,36.44,0.04,-272.76,-272.76,-45,569,-931,25.6,10.7,-7.3,25.5,11.1,-7.0,5.73,2.31,-20.7,30.2
2013-05-06 01:52:00,0.0,1.9118,0.0011,406.54,0.40,405.3,33.1,138.06,31.21,24.66,36.44,0.04,-272.76,-272.76,-45,569,-931,25.6,10.7,-7.4,25.6,11.0,-7.0,5.73,2.32,-20.7,30.2
2013-05-06 01:53:00,0.0,1.9119,0.0011,406.72,0.42,405.4,29.2,138.06,31.21,24.67,36.44,0.04,-272.76,-272.76,-45,569,-931,25.6,10.7,-7.4,25.5,11.1,-7.0,5.73,2.34,-20.7,30.2
2013-05-06 01:54:00,0.0,1.9110,0.0010,406.46,0.46,399.8,28.2,138.06,31.21,24.66,36.44,0.04,-272.76,-272.76,-45,569,-931,25.6,10.5,-7.7,25.5,10.9,-7.3,5.73,2.37,-20.7,30.2
2013-05-06 01:55:00,0.0,1.9113,0.0010,406.62,0.42,406.7,29.0,138.06,31.21,24.66,36.44,0.04,-272.76,-272.76,-45,569,-931,25.6,10.7,-7.3,25.6,11.1,-7.0,5.73,2.38,-20.7,30.2
2013-05-06 01:56:00,0.0,1.9108,0.0010,406.64,0.45,400.4,24.5,138.06,31.21,24.66,36.44,0.04,-272.76,-272.76,-45,569,-931,25.6,10.6,-7.5,25.5,11.0,-7.1,5.73,2.37,-20.7,30.2
2013-05-06 01:57:00,0.0,1.9107,0.0009,406.61,0.48,398.7,30.4,138.06,31.21,24.66,36.43,0.04,-272.76,-272.76,-45,569,-931,25.6,10.6,-7.6,25.6,10.9,-7.2,5.73,2.37,-20.7,30.2
2013-05-06 01:58:00,0.0,1.9108,0.0007,406.58,0.39,403.8,30.5,138.06,31.21,24.66,36.44,0.04,-272.76,-272.76,-45,569,-931,25.6,10.5,-7.6,25.6,10.9,-7.2,5.73,2.34,-20.7,30.1
2013-05-06 01:59:00,0.0,1.9108,0.0008,406.71,0.44,404.9,30.9,138.06,31.21,24.66,36.43,0.04,-272.76,-272.76,-45,569,-931,25.6,10.6,-7.5,25.6,11.0,-7.1,5.73,2.33,-20.7,30.1
2013-05-06 02:00:00,0.0,1.9101,0.0011,406.63,0.43,396.7,29.7,138.06,31.21,24.66,36.43,0.04,-272.75,-272.76,-45,569,-931,25.6,10.4,-7.7,25.6,10.8,-7.3,5.73,2.31,-20.7,30.2
2013-05-06 02:01:00,0.0,1.9112,0.0009,406.61,0.49,407.4,31.6,138.06,31.21,24.66,36.44,0.04,-272.76,-272.76,-45,569,-931,25.6,10.5,-7.7,25.5,10.8,-7.3,5.73,2.34,-20.7,30.2
2013-05-06 02:02:00,0.0,1.9116,0.0010,406.74,0.46,400.8,32.1,138.06,31.21,24.66,36.43,0.04,-272.76,-272.76,-45,569,-931,25.6,10.6,-7.5,25.5,10.9,-7.2,5.73,2.35,-20.7,30.2
2013-05-06 02:03:00,0.0,1.9114,0.0009,406.65,0.43,404.6,26.3,138.06,31.21,24.66,36.43,0.04,-272.76,-272.76,-45,569,-931,25.6,10.6,-7.4,25.6,11.0,-7.0,5.73,2.37,-20.7,30.2
2013-05-06 02:04:00,0.0,1.9117,0.0009,406.65,0.45,398.0,31.3,138.06,31.21,24.66,36.44,0.04,-272.76,-272.76,-45,569,-931,25.6,10.7,-7.4,25.6,11.0,-7.0,5.73,2.38,-20.7,30.1
2013-05-06 02:05:00,0.0,1.9126,0.0010,406.65,0.40,418.4,37.1,138.06,31.21,24.66,36.44,0.04,-272.76,-272.76,-45,569,-931,25.6,10.5,-7.6,25.6,10.9,-7.2,5.73,2.38,-20.7,30.2
2013-05-06 02:06:00,0.0,1.9114,0.0010,406.60,0.43,402.9,31.5,138.06,31.21,24.66,36.44,0.04,-272.76,-272.76,-45,569,-931,25.6,10.4,-7.7,25.6,10.8,-7.3,5.73,2.35,-20.7,30.2
2013-05-06 02:07:00,0.0,1.9115,0.0008,406.70,0.35,408.9,32.4,138.06,31.20,24.66,36.43,0.04,-272.76,-272.76,-45,569,-931,25.6,10.4,-7.7,25.6,10.8,-7.3,5.73,2.33,-20.7,30.1
2013-05-06 02:08:00,0.0,1.9126,0.0010,406.53,0.37,407.6,30.8,138.06,31.20,24.66,36.44,0.04,-272.76,-272.76,-45,569,-931,25.6,10.7,-7.4,25.6,11.0,-7.0,5.73,2.32,-20.7,30.1
2013-05-06 02:09:00,0.0,1.9127,0.0014,406.58,0.41,404.2,31.3,138.06,31.20,24.66,36.44,0.04,-272.76,-272.76,-45,569,-931,25.6,10.7,-7.4,25.6,11.1,-6.9,5.73,2.32,-20.7,30.2
2013-05-06 02:10:00,0.0,1.9100,0.0010,406.59,0.34,411.3,32.2,138.06,31.20,24.66,36.44,0.04,-272.76,-272.76,-45,569,-931,25.6,10.3,-7.9,25.6,10.7,-7.5,5.73,2.33,-20.7,30.2
2013-05-06 02:11:00,0.0,1.9112,0.0012,406.58,0.39,408.1,27.5,138.06,31.20,24.66,36.44,0.04,-272.76,-272.76,-45,569,-931,25.6,10.6,-7.6,25.6,10.9,-7.1,5.73,2.36,-20.6,30.2
2013-05-06 02:12:00,0.0,1.9115,0.0011,406.48,0.40,413.0,33.4,138.06,31.20,24.66,36.44,0.04,-272.76,-272.76,-45,569,-931,25.6,10.5,-7.6,25.6,10.9,-7.2,5.73,2.38,-20.7,30.2
2013-05-06 02:13:00,0.0,1.9116,0.0009,406.60,0.42,413.1,29.7,138.05,31.20,24.66,36.43,0.04,-272.76,-272.76,-45,569,-931,25.6,10.6,-7.5,25.6,11.0,-7.1,5.73,2.38,-20.7,30.2
2013-05-06 02:14:00,0.0,1.9111,0.0010,406.48,0.40,410.2,29.1,138.06,31.20,24.66,36.44,0.04,-272.76,-272.76,-45,569,-931,25.6,10.4,-7.8,25.6,10.8,-7.3,5.73,2.36,-20.7,30.2
2013-05-06 02:15:00,0.0,1.9109,0.0010,406.53,0.44,397.8,29.9,138.06,31.20,24.66,36.43,0.04,-272.76,-272.76,-45,569,-931,25.6,10.3,-7.8,25.6,10.7,-7.4,5.73,2.33,-20.6,30.2
2013-05-06 02:16:00,0.0,1.9105,0.0009,406.57,0.43,406.7,29.8,138.06,31.20,24.66,36.44,0.04,-272.76,-272.76,-45,569,-931,25.6,10.4,-7.8,25.6,10.7,-7.4,5.73,2.32,-20.7,30.2